| time (UTC) | temp C | wind direction | speed KPH | gust KPH | rain 1hr cm | rain 24hr cm | rain mn cm | humidity % | barometer mb |
| 20260508052734 | 6 | 167 | 12.9 | 14.5 | 0.00 | 0.00 | 0.00 | 70 | 1025.8 |
| 20260508050733 | 6 | 175 | 9.7 | 12.9 | 0.00 | 0.00 | 0.00 | 70 | 1025.7 |
| 20260508044734 | 6 | 162 | 9.7 | 11.3 | 0.00 | 0.00 | 0.00 | 69 | 1025.5 |
| 20260508042733 | 5 | 142 | 12.9 | 12.9 | 0.00 | 0.00 | 0.00 | 65 | 1025.3 |
| 20260508040733 | 5 | 143 | 12.9 | 14.5 | 0.00 | 0.00 | 0.00 | 65 | 1025.2 |
| 20260508034733 | 5 | 141 | 12.9 | 12.9 | 0.00 | 0.00 | 0.00 | 69 | 1025.0 |
| 20260508032733 | 5 | 142 | 12.9 | 14.5 | 0.00 | 0.00 | 0.00 | 70 | 1024.9 |
| 20260508031057 | 6 | 123 | 12.9 | 14.5 | 0.00 | 0.00 | 0.00 | 64 | 1024.8 |
| 20260508024733 | 5 | 114 | 12.9 | 14.5 | 0.00 | 0.00 | 0.00 | 72 | 1024.5 |
| 20260508022732 | 5 | 106 | 14.5 | 16.1 | 0.00 | 0.00 | 0.00 | 71 | 1024.3 |
| 20260508020733 | 6 | 95 | 16.1 | 17.7 | 0.00 | 0.00 | 0.00 | 66 | 1024.1 |
| 20260508014733 | 6 | 93 | 14.5 | 14.5 | 0.00 | 0.00 | 0.00 | 60 | 1023.9 |
| 20260508012732 | 6 | 96 | 12.9 | 14.5 | 0.00 | 0.00 | 0.00 | 65 | 1023.7 |
| 20260508010733 | 6 | 98 | 12.9 | 14.5 | 0.00 | 0.00 | 0.00 | 63 | 1023.4 |
| 20260508004733 | 6 | 93 | 11.3 | 12.9 | 0.00 | 0.00 | 0.00 | 72 | 1023.3 |
| 20260508002733 | 6 | 95 | 12.9 | 12.9 | 0.00 | 0.00 | 0.00 | 68 | 1023.1 |
| 20260508000735 | 6 | 84 | 12.9 | 12.9 | 0.00 | 0.00 | 0.00 | 69 | 1022.9 |
| 20260507234734 | 6 | 79 | 14.5 | 16.1 | 0.00 | 0.00 | 0.00 | 72 | 1022.8 |
| 20260507232732 | 6 | 75 | 16.1 | 17.7 | 0.00 | 0.00 | 0.00 | 66 | 1022.7 |
| 20260507230733 | 6 | 72 | 12.9 | 14.5 | 0.00 | 0.00 | 0.00 | 73 | 1022.5 |
| 20260507224732 | 7 | 69 | 9.7 | 12.9 | 0.00 | 0.00 | 0.00 | 36 | 1022.2 |
| 20260507222733 | 7 | 65 | 9.7 | 11.3 | 0.00 | 0.00 | 0.00 | 22 | 1022.1 |
| 20260507220732 | 7 | 65 | 11.3 | 12.9 | 0.00 | 0.00 | 0.00 | 33 | 1022.1 |
| 20260507214732 | 7 | 74 | 8.0 | 12.9 | 0.00 | 0.00 | 0.00 | 42 | 1021.9 |
| 20260507212731 | 7 | 71 | 8.0 | 9.7 | 0.00 | 0.00 | 0.00 | 28 | 1021.7 |
| 20260507210732 | 7 | 74 | 8.0 | 9.7 | 0.00 | 0.00 | 0.00 | 43 | 1021.5 |
| 20260507204733 | 7 | 96 | 1.6 | 3.2 | 0.00 | 0.00 | 0.00 | 22 | 1021.2 |
| 20260507202732 | 7 | 153 | 3.2 | 3.2 | 0.00 | 0.00 | 0.00 | 27 | 1021.0 |
| 20260507200733 | 7 | 103 | 4.8 | 4.8 | 0.00 | 0.00 | 0.00 | 37 | 1020.9 |
| 20260507194731 | 7 | 94 | 6.4 | 8.0 | 0.00 | 0.00 | 0.00 | 40 | 1020.6 |
| 20260507192731 | 6 | 77 | 9.7 | 11.3 | 0.00 | 0.00 | 0.00 | 44 | 1020.3 |
| 20260507190731 | 7 | 82 | 9.7 | 9.7 | 0.00 | 0.00 | 0.00 | 27 | 1020.0 |
| 20260507184731 | 7 | 94 | 6.4 | 8.0 | 0.00 | 0.00 | 0.00 | 47 | 1019.5 |
| 20260507182730 | 7 | 71 | 9.7 | 9.7 | 0.00 | 0.00 | 0.00 | 45 | 1019.6 |
| 20260507180730 | 9 | 107 | 6.4 | 8.0 | 0.00 | 0.00 | 0.00 | 37 | 1019.3 |
| 20260507174732 | 8 | 96 | 8.0 | 8.0 | 0.00 | 0.00 | 0.00 | 37 | 1019.3 |
| 20260507172730 | 7 | 79 | 9.7 | 9.7 | 0.00 | 0.00 | 0.00 | 40 | 1019.1 |
| 20260507170730 | 8 | 97 | 8.0 | 9.7 | 0.00 | 0.00 | 0.00 | 45 | 1018.9 |
| 20260507164731 | 6 | 80 | 12.9 | 12.9 | 0.00 | 0.00 | 0.00 | 68 | 1018.8 |
| 20260507162731 | 6 | 70 | 12.9 | 14.5 | 0.00 | 0.00 | 0.00 | 75 | 1018.8 |
| 20260507160731 | 6 | 62 | 8.0 | 11.3 | 0.00 | 0.00 | 0.00 | 78 | 1018.6 |
| 20260507154730 | 7 | 107 | 9.7 | 11.3 | 0.00 | 0.00 | 0.00 | 65 | 1018.2 |
| 20260507152730 | 7 | 115 | 9.7 | 11.3 | 0.00 | 0.00 | 0.00 | 66 | 1018.3 |
| 20260507150732 | 7 | 101 | 11.3 | 12.9 | 0.00 | 0.00 | 0.00 | 66 | 1018.2 |
| 20260507144731 | 7 | 106 | 9.7 | 12.9 | 0.00 | 0.00 | 0.00 | 58 | 1018.0 |
| 20260507142732 | 6 | 76 | 12.9 | 16.1 | 0.00 | 0.00 | 0.00 | 68 | 1017.9 |
| 20260507140731 | 7 | 88 | 8.0 | 11.3 | 0.00 | 0.00 | 0.00 | 54 | 1017.9 |
| 20260507134732 | 8 | 171 | 8.0 | 9.7 | 0.00 | 0.00 | 0.00 | 48 | 1017.8 |
| 20260507132730 | 7 | 149 | 11.3 | 12.9 | 0.00 | 0.00 | 0.00 | 54 | 1017.7 |
| 20260507130731 | 8 | 141 | 9.7 | 11.3 | 0.00 | 0.00 | 0.00 | 46 | 1017.6 |
| 20260507124730 | 8 | 149 | 9.7 | 11.3 | 0.00 | 0.00 | 0.00 | 55 | 1017.5 |
| 20260507122729 | 7 | 144 | 14.5 | 16.1 | 0.00 | 0.00 | 0.00 | 55 | 1017.3 |
| 20260507120731 | 7 | 142 | 17.7 | 19.3 | 0.00 | 0.00 | 0.00 | 55 | 1017.2 |
| 20260507114731 | 7 | 142 | 19.3 | 20.9 | 0.00 | 0.00 | 0.00 | 58 | 1017.1 |
| 20260507112729 | 7 | 144 | 16.1 | 17.7 | 0.00 | 0.00 | 0.00 | 58 | 1017.1 |
| 20260507110729 | 7 | 141 | 12.9 | 14.5 | 0.00 | 0.00 | 0.00 | 55 | 1017.2 |
| 20260507104729 | 7 | 138 | 11.3 | 12.9 | 0.00 | 0.00 | 0.00 | 57 | 1017.0 |
| 20260507102729 | 7 | 145 | 12.9 | 14.5 | 0.00 | 0.00 | 0.00 | 57 | 1016.9 |
| 20260507100729 | 7 | 151 | 14.5 | 16.1 | 0.00 | 0.00 | 0.00 | 59 | 1016.7 |
| 20260507094729 | 6 | 156 | 12.9 | 14.5 | 0.00 | 0.00 | 0.00 | 65 | 1016.6 |
| 20260507092729 | 6 | 156 | 12.9 | 14.5 | 0.00 | 0.00 | 0.00 | 73 | 1016.6 |
| 20260507090730 | 6 | 157 | 12.9 | 14.5 | 0.00 | 0.00 | 0.00 | 76 | 1016.5 |
| 20260507084729 | 6 | 158 | 14.5 | 16.1 | 0.00 | 0.00 | 0.00 | 74 | 1016.4 |
| 20260507082729 | 6 | 166 | 14.5 | 16.1 | 0.00 | 0.00 | 0.00 | 73 | 1016.3 |
| 20260507080729 | 6 | 161 | 17.7 | 19.3 | 0.00 | 0.00 | 0.00 | 77 | 1016.2 |
| 20260507074729 | 6 | 160 | 16.1 | 19.3 | 0.00 | 0.00 | 0.00 | 78 | 1016.3 |
| 20260507072729 | 6 | 166 | 16.1 | 17.7 | 0.00 | 0.00 | 0.00 | 80 | 1016.2 |
| 20260507070728 | 5 | 163 | 14.5 | 16.1 | 0.00 | 0.00 | 0.00 | 82 | 1016.1 |
| 20260507064729 | 5 | 169 | 14.5 | 17.7 | 0.00 | 0.00 | 0.00 | 82 | 1016.0 |
| 20260507062728 | 5 | 163 | 17.7 | 20.9 | 0.00 | 0.00 | 0.00 | 82 | 1015.9 |
| 20260507060728 | 5 | 162 | 17.7 | 20.9 | 0.00 | 0.00 | 0.00 | 80 | 1015.8 |
| 20260507054729 | 5 | 164 | 17.7 | 19.3 | 0.00 | 0.00 | 0.00 | 78 | 1015.6 |